This is the latest recevied weather packets stored in our database for station/object KF0TNT. If no packets are shown the sender has not sent any weather packets the latest 10 day(s).
| Time | Temp. | Humidity | Pressure | Rain* | Wind** | Luminosity | Snow |
|---|---|---|---|---|---|---|---|
| 1777333453 | 6.11° C | 79% | 1014.9 hPa | 1.27 mm | - | 17 W/m² | - |
| 1777333150 | 6.11° C | 82% | 1014.9 hPa | 0 mm | - | 10 W/m² | - |
| 1777332848 | 6.11° C | 80% | 1014.8 hPa | 0.51 mm | - | 13 W/m² | - |
| 1777332545 | 6.11° C | 79% | 1014.5 hPa | 0.51 mm | - | 19 W/m² | - |
| 1777332242 | 6.67° C | 80% | 1014.6 hPa | 0.51 mm | - | 32 W/m² | - |
| 1777331939 | 6.67° C | 77% | 1014.5 hPa | 1.27 mm | - | 28 W/m² | - |
| 1777331636 | 7.22° C | 76% | 1014.4 hPa | 1.27 mm | - | 22 W/m² | - |
| 1777331333 | 7.22° C | 74% | 1014.8 hPa | 0.51 mm | - | 19 W/m² | - |
| 1777331030 | 7.22° C | 78% | 1014.4 hPa | 0 mm | - | 42 W/m² | - |
| 1777330727 | 7.22° C | 75% | 1014.5 hPa | 0.51 mm | - | 69 W/m² | - |
| 1777330425 | 7.22° C | 78% | 1014.6 hPa | 1.78 mm | - | 67 W/m² | - |
| 1777330122 | 7.22° C | 75% | 1014.3 hPa | 1.27 mm | - | 31 W/m² | - |
| 1777329821 | 7.22° C | 72% | 1014.3 hPa | 0 mm | - | 15 W/m² | - |
| 1777329519 | 7.22° C | 73% | 1014 hPa | 0 mm | - | 25 W/m² | - |
| 1777329216 | 7.22° C | 75% | 1014.1 hPa | 0 mm | - | 48 W/m² | - |
| 1777328913 | 7.22° C | 74% | 1013.9 hPa | 0 mm | - | 24 W/m² | - |
| 1777328612 | 7.22° C | 75% | 1014 hPa | 0.51 mm | - | 60 W/m² | - |
| 1777328309 | 7.22° C | 77% | 1013.9 hPa | 0.51 mm | - | 103 W/m² | - |
| 1777328007 | 7.22° C | 77% | 1013.6 hPa | 0 mm | - | 101 W/m² | - |
| 1777327706 | 7.22° C | 78% | 1014 hPa | 0 mm | - | 105 W/m² | - |
| 1777327402 | 7.22° C | 77% | 1013.8 hPa | 0.51 mm | - | 127 W/m² | - |
| 1777327100 | 7.22° C | 79% | 1014 hPa | 0 mm | - | 95 W/m² | - |
| 1777326796 | 7.22° C | 81% | 1014.3 hPa | 0 mm | - | 105 W/m² | - |
| 1777326493 | 7.22° C | 77% | 1014.1 hPa | 0.51 mm | - | 139 W/m² | - |
| 1777326191 | 7.22° C | 76% | 1014.3 hPa | 1.27 mm | - | 166 W/m² | - |
* Rain latest hour (hover to see other rain measurements)
** Current wind speed in m/s (hover to see current wind gust speed)